sat.trackr.live / text

‹ back to catalog

STARLINK-3289

NORAD 50173 · 2021-125T

PAYLOAD ACTIVE UNKNOWN

§ Identity

Operator
Country
US
Launch date
2021-12-18
Launch site
AFWTR
Launch vehicle
Mass (kg)
RCS (m²)

Purposes: comms

External: N2YO · Heavens-Above · Gunter

§ Orbital elements

Epoch: 2026-09-14T22:39:35.546688Z

Period
94.93 min
Inclination
53.2129°
Eccentricity
0.0002584
Mean motion
15.16924433 rev/d
Perigee alt
513.4 km
Apogee alt
516.9 km
Semi-major
6,893.3 km
B*
9.9637e-4
RAAN
102.9637°
Arg perigee
121.4866°
Mean anomaly
238.6382°
Rev number
26,541

§ Raw data

STARLINK-32891 50173U 21125T   26257.94416142  .00019625  00000+0  99637-3 0  99992 50173  53.2129 102.9637 0002584 121.4866 238.6382 15.16924433265413

JSON: /api/v1/satellites/50173 · /tle

For live sub-satellite position, see the globe view (requires WebGL).

§ Visibility from observer

Set your observer location to see the next 7 days of passes ≥ 10°. The values pass through the URL so the page stays shareable.

No JS? Fill the form by hand. The geolocation button needs JavaScript.